User: anonymous   Login
Location: Dal�� Lhota
(48.7500°N, 14.0167°E)
Time: 04:49:41
(UTC+00:00)
Language:

Vanguard 3 - Orbit

View from above orbital plane
View from above orbital plane
View from above satellite
View from above satellite

Ground track
Ground track

The orbit data is extracted from the following two-line orbital elements,

1 00020U 59007A   21212.53233420  .00000084  00000-0  20275-4 0  9995
2 00020  33.3536 164.5433 1666061 276.9620  64.5110 11.55808715277948
Epoch (UTC): 31 July 2021 12:46:33
Eccentricity: 0.1666061
inclination: 33.3536°
perigee height: 508 km
apogee height: 3261 km
right ascension of ascending node: 164.5433°
argument of perigee: 276.9620°
revolutions per day: 11.55808715
mean anomaly at epoch: 64.5110°
orbit number at epoch: 27794

The dashed part of the orbit path shows where the satellite is in the earth's shadow,  

DLR